Index of /20260508/WXO-DD/model_rdps/10km/12/082
Name Last modified Size Description
Parent Directory -
20260508T12Z_MSC_RDPS_AbsoluteVorticity_IsbL-0250_RLatLon0.09_PT082H.grib2 2026-05-08 15:05 613K
20260508T12Z_MSC_RDPS_AbsoluteVorticity_IsbL-0500_RLatLon0.09_PT082H.grib2 2026-05-08 15:05 576K
20260508T12Z_MSC_RDPS_AbsoluteVorticity_IsbL-0700_RLatLon0.09_PT082H.grib2 2026-05-08 15:05 633K
20260508T12Z_MSC_RDPS_AbsoluteVorticity_IsbL-0850_RLatLon0.09_PT082H.grib2 2026-05-08 15:05 787K
20260508T12Z_MSC_RDPS_AirTemp_AGL-120m_RLatLon0.09_PT082H.grib2 2026-05-08 15:05 379K
20260508T12Z_MSC_RDPS_AirTemp_AGL-2m_RLatLon0.09_PT082H.grib2 2026-05-08 15:05 634K
20260508T12Z_MSC_RDPS_AirTemp_AGL-40m_RLatLon0.09_PT082H.grib2 2026-05-08 15:05 389K
20260508T12Z_MSC_RDPS_AirTemp_AGL-80m_RLatLon0.09_PT082H.grib2 2026-05-08 15:05 383K
20260508T12Z_MSC_RDPS_AirTemp_IsbL-0001_RLatLon0.09_PT082H.grib2 2026-05-08 15:05 321K
20260508T12Z_MSC_RDPS_AirTemp_IsbL-0005_RLatLon0.09_PT082H.grib2 2026-05-08 15:05 384K
20260508T12Z_MSC_RDPS_AirTemp_IsbL-0010_RLatLon0.09_PT082H.grib2 2026-05-08 15:05 393K
20260508T12Z_MSC_RDPS_AirTemp_IsbL-0020_RLatLon0.09_PT082H.grib2 2026-05-08 15:05 322K
20260508T12Z_MSC_RDPS_AirTemp_IsbL-0030_RLatLon0.09_PT082H.grib2 2026-05-08 15:05 344K
20260508T12Z_MSC_RDPS_AirTemp_IsbL-0050_RLatLon0.09_PT082H.grib2 2026-05-08 15:05 312K
20260508T12Z_MSC_RDPS_AirTemp_IsbL-0100_RLatLon0.09_PT082H.grib2 2026-05-08 15:05 392K
20260508T12Z_MSC_RDPS_AirTemp_IsbL-0150_RLatLon0.09_PT082H.grib2 2026-05-08 15:05 409K
20260508T12Z_MSC_RDPS_AirTemp_IsbL-0175_RLatLon0.09_PT082H.grib2 2026-05-08 15:05 402K
20260508T12Z_MSC_RDPS_AirTemp_IsbL-0200_RLatLon0.09_PT082H.grib2 2026-05-08 15:05 407K
20260508T12Z_MSC_RDPS_AirTemp_IsbL-0225_RLatLon0.09_PT082H.grib2 2026-05-08 15:05 415K
20260508T12Z_MSC_RDPS_AirTemp_IsbL-0250_RLatLon0.09_PT082H.grib2 2026-05-08 15:05 429K
20260508T12Z_MSC_RDPS_AirTemp_IsbL-0275_RLatLon0.09_PT082H.grib2 2026-05-08 15:05 408K
20260508T12Z_MSC_RDPS_AirTemp_IsbL-0300_RLatLon0.09_PT082H.grib2 2026-05-08 15:05 438K
20260508T12Z_MSC_RDPS_AirTemp_IsbL-0350_RLatLon0.09_PT082H.grib2 2026-05-08 15:05 424K
20260508T12Z_MSC_RDPS_AirTemp_IsbL-0400_RLatLon0.09_PT082H.grib2 2026-05-08 15:05 427K
20260508T12Z_MSC_RDPS_AirTemp_IsbL-0450_RLatLon0.09_PT082H.grib2 2026-05-08 15:05 436K
20260508T12Z_MSC_RDPS_AirTemp_IsbL-0500_RLatLon0.09_PT082H.grib2 2026-05-08 15:05 449K
20260508T12Z_MSC_RDPS_AirTemp_IsbL-0550_RLatLon0.09_PT082H.grib2 2026-05-08 15:05 468K
20260508T12Z_MSC_RDPS_AirTemp_IsbL-0600_RLatLon0.09_PT082H.grib2 2026-05-08 15:05 490K
20260508T12Z_MSC_RDPS_AirTemp_IsbL-0650_RLatLon0.09_PT082H.grib2 2026-05-08 15:05 508K
20260508T12Z_MSC_RDPS_AirTemp_IsbL-0700_RLatLon0.09_PT082H.grib2 2026-05-08 15:05 535K
20260508T12Z_MSC_RDPS_AirTemp_IsbL-0750_RLatLon0.09_PT082H.grib2 2026-05-08 15:05 535K
20260508T12Z_MSC_RDPS_AirTemp_IsbL-0800_RLatLon0.09_PT082H.grib2 2026-05-08 15:05 585K
20260508T12Z_MSC_RDPS_AirTemp_IsbL-0850_RLatLon0.09_PT082H.grib2 2026-05-08 15:05 630K
20260508T12Z_MSC_RDPS_AirTemp_IsbL-0875_RLatLon0.09_PT082H.grib2 2026-05-08 15:05 520K
20260508T12Z_MSC_RDPS_AirTemp_IsbL-0900_RLatLon0.09_PT082H.grib2 2026-05-08 15:05 529K
20260508T12Z_MSC_RDPS_AirTemp_IsbL-0925_RLatLon0.09_PT082H.grib2 2026-05-08 15:05 531K
20260508T12Z_MSC_RDPS_AirTemp_IsbL-0950_RLatLon0.09_PT082H.grib2 2026-05-08 15:05 535K
20260508T12Z_MSC_RDPS_AirTemp_IsbL-0970_RLatLon0.09_PT082H.grib2 2026-05-08 15:05 534K
20260508T12Z_MSC_RDPS_AirTemp_IsbL-0985_RLatLon0.09_PT082H.grib2 2026-05-08 15:05 523K
20260508T12Z_MSC_RDPS_AirTemp_IsbL-1000_RLatLon0.09_PT082H.grib2 2026-05-08 15:05 506K
20260508T12Z_MSC_RDPS_AirTemp_IsbL-1015_RLatLon0.09_PT082H.grib2 2026-05-08 15:05 508K
20260508T12Z_MSC_RDPS_Albedo_Sfc_RLatLon0.09_PT082H.grib2 2026-05-08 15:05 156K
20260508T12Z_MSC_RDPS_CAPE_Sfc_RLatLon0.09_PT082H.grib2 2026-05-08 15:05 1.8M
20260508T12Z_MSC_RDPS_CIN_Sfc_RLatLon0.09_PT082H.grib2 2026-05-08 15:05 1.4M
20260508T12Z_MSC_RDPS_CloudWater_EAtm_RLatLon0.09_PT082H.grib2 2026-05-08 15:05 233K
20260508T12Z_MSC_RDPS_ConvectivePrecip-Accum_Sfc_RLatLon0.09_PT082H.grib2 2026-05-08 15:05 1.4M
20260508T12Z_MSC_RDPS_DewPointDepression_AGL-2m_RLatLon0.09_PT082H.grib2 2026-05-08 15:05 418K
20260508T12Z_MSC_RDPS_DewPointDepression_IsbL-0001_RLatLon0.09_PT082H.grib2 2026-05-08 15:05 193
20260508T12Z_MSC_RDPS_DewPointDepression_IsbL-0005_RLatLon0.09_PT082H.grib2 2026-05-08 15:05 193
20260508T12Z_MSC_RDPS_DewPointDepression_IsbL-0010_RLatLon0.09_PT082H.grib2 2026-05-08 15:05 193
20260508T12Z_MSC_RDPS_DewPointDepression_IsbL-0020_RLatLon0.09_PT082H.grib2 2026-05-08 15:05 193
20260508T12Z_MSC_RDPS_DewPointDepression_IsbL-0030_RLatLon0.09_PT082H.grib2 2026-05-08 15:05 193
20260508T12Z_MSC_RDPS_DewPointDepression_IsbL-0050_RLatLon0.09_PT082H.grib2 2026-05-08 15:05 79K
20260508T12Z_MSC_RDPS_DewPointDepression_IsbL-0100_RLatLon0.09_PT082H.grib2 2026-05-08 15:05 112K
20260508T12Z_MSC_RDPS_DewPointDepression_IsbL-0150_RLatLon0.09_PT082H.grib2 2026-05-08 15:05 149K
20260508T12Z_MSC_RDPS_DewPointDepression_IsbL-0175_RLatLon0.09_PT082H.grib2 2026-05-08 15:05 171K
20260508T12Z_MSC_RDPS_DewPointDepression_IsbL-0200_RLatLon0.09_PT082H.grib2 2026-05-08 15:05 220K
20260508T12Z_MSC_RDPS_DewPointDepression_IsbL-0225_RLatLon0.09_PT082H.grib2 2026-05-08 15:05 263K
20260508T12Z_MSC_RDPS_DewPointDepression_IsbL-0250_RLatLon0.09_PT082H.grib2 2026-05-08 15:05 306K
20260508T12Z_MSC_RDPS_DewPointDepression_IsbL-0275_RLatLon0.09_PT082H.grib2 2026-05-08 15:05 313K
20260508T12Z_MSC_RDPS_DewPointDepression_IsbL-0300_RLatLon0.09_PT082H.grib2 2026-05-08 15:05 328K
20260508T12Z_MSC_RDPS_DewPointDepression_IsbL-0350_RLatLon0.09_PT082H.grib2 2026-05-08 15:05 336K
20260508T12Z_MSC_RDPS_DewPointDepression_IsbL-0400_RLatLon0.09_PT082H.grib2 2026-05-08 15:05 350K
20260508T12Z_MSC_RDPS_DewPointDepression_IsbL-0450_RLatLon0.09_PT082H.grib2 2026-05-08 15:05 361K
20260508T12Z_MSC_RDPS_DewPointDepression_IsbL-0500_RLatLon0.09_PT082H.grib2 2026-05-08 15:05 368K
20260508T12Z_MSC_RDPS_DewPointDepression_IsbL-0550_RLatLon0.09_PT082H.grib2 2026-05-08 15:05 379K
20260508T12Z_MSC_RDPS_DewPointDepression_IsbL-0600_RLatLon0.09_PT082H.grib2 2026-05-08 15:05 393K
20260508T12Z_MSC_RDPS_DewPointDepression_IsbL-0650_RLatLon0.09_PT082H.grib2 2026-05-08 15:05 401K
20260508T12Z_MSC_RDPS_DewPointDepression_IsbL-0700_RLatLon0.09_PT082H.grib2 2026-05-08 15:05 415K
20260508T12Z_MSC_RDPS_DewPointDepression_IsbL-0750_RLatLon0.09_PT082H.grib2 2026-05-08 15:05 434K
20260508T12Z_MSC_RDPS_DewPointDepression_IsbL-0800_RLatLon0.09_PT082H.grib2 2026-05-08 15:05 465K
20260508T12Z_MSC_RDPS_DewPointDepression_IsbL-0850_RLatLon0.09_PT082H.grib2 2026-05-08 15:05 472K
20260508T12Z_MSC_RDPS_DewPointDepression_IsbL-0875_RLatLon0.09_PT082H.grib2 2026-05-08 15:05 466K
20260508T12Z_MSC_RDPS_DewPointDepression_IsbL-0900_RLatLon0.09_PT082H.grib2 2026-05-08 15:05 454K
20260508T12Z_MSC_RDPS_DewPointDepression_IsbL-0925_RLatLon0.09_PT082H.grib2 2026-05-08 15:05 446K
20260508T12Z_MSC_RDPS_DewPointDepression_IsbL-0950_RLatLon0.09_PT082H.grib2 2026-05-08 15:05 443K
20260508T12Z_MSC_RDPS_DewPointDepression_IsbL-0970_RLatLon0.09_PT082H.grib2 2026-05-08 15:05 438K
20260508T12Z_MSC_RDPS_DewPointDepression_IsbL-0985_RLatLon0.09_PT082H.grib2 2026-05-08 15:05 431K
20260508T12Z_MSC_RDPS_DewPointDepression_IsbL-1000_RLatLon0.09_PT082H.grib2 2026-05-08 15:05 424K
20260508T12Z_MSC_RDPS_DewPointDepression_IsbL-1015_RLatLon0.09_PT082H.grib2 2026-05-08 15:05 413K
20260508T12Z_MSC_RDPS_DewPoint_AGL-2m_RLatLon0.09_PT082H.grib2 2026-05-08 15:05 396K
20260508T12Z_MSC_RDPS_DownwardLongwaveRadiationFlux-Accum_Sfc_RLatLon0.09_PT082H.grib2 2026-05-08 15:05 442K
20260508T12Z_MSC_RDPS_DownwardShortwaveRadiationFlux-Accum_NTAtm_RLatLon0.09_PT082H.grib2 2026-05-08 15:05 108K
20260508T12Z_MSC_RDPS_DownwardShortwaveRadiationFlux-Accum_Sfc_RLatLon0.09_PT082H.grib2 2026-05-08 15:05 522K
20260508T12Z_MSC_RDPS_FreezingRain-Accum1h_Sfc_RLatLon0.09_PT082H.grib2 2026-05-08 15:05 25K
20260508T12Z_MSC_RDPS_FreezingRain-Accum_Sfc_RLatLon0.09_PT082H.grib2 2026-05-08 15:05 223K
20260508T12Z_MSC_RDPS_GeopotentialHeight_IsbL-0001_RLatLon0.09_PT082H.grib2 2026-05-08 15:05 281K
20260508T12Z_MSC_RDPS_GeopotentialHeight_IsbL-0005_RLatLon0.09_PT082H.grib2 2026-05-08 15:05 343K
20260508T12Z_MSC_RDPS_GeopotentialHeight_IsbL-0010_RLatLon0.09_PT082H.grib2 2026-05-08 15:05 311K
20260508T12Z_MSC_RDPS_GeopotentialHeight_IsbL-0020_RLatLon0.09_PT082H.grib2 2026-05-08 15:05 312K
20260508T12Z_MSC_RDPS_GeopotentialHeight_IsbL-0030_RLatLon0.09_PT082H.grib2 2026-05-08 15:05 315K
20260508T12Z_MSC_RDPS_GeopotentialHeight_IsbL-0050_RLatLon0.09_PT082H.grib2 2026-05-08 15:05 313K
20260508T12Z_MSC_RDPS_GeopotentialHeight_IsbL-0100_RLatLon0.09_PT082H.grib2 2026-05-08 15:05 287K
20260508T12Z_MSC_RDPS_GeopotentialHeight_IsbL-0150_RLatLon0.09_PT082H.grib2 2026-05-08 15:05 229K
20260508T12Z_MSC_RDPS_GeopotentialHeight_IsbL-0175_RLatLon0.09_PT082H.grib2 2026-05-08 15:05 231K
20260508T12Z_MSC_RDPS_GeopotentialHeight_IsbL-0200_RLatLon0.09_PT082H.grib2 2026-05-08 15:05 233K
20260508T12Z_MSC_RDPS_GeopotentialHeight_IsbL-0225_RLatLon0.09_PT082H.grib2 2026-05-08 15:05 235K
20260508T12Z_MSC_RDPS_GeopotentialHeight_IsbL-0250_RLatLon0.09_PT082H.grib2 2026-05-08 15:05 237K
20260508T12Z_MSC_RDPS_GeopotentialHeight_IsbL-0275_RLatLon0.09_PT082H.grib2 2026-05-08 15:05 236K
20260508T12Z_MSC_RDPS_GeopotentialHeight_IsbL-0300_RLatLon0.09_PT082H.grib2 2026-05-08 15:05 236K
20260508T12Z_MSC_RDPS_GeopotentialHeight_IsbL-0350_RLatLon0.09_PT082H.grib2 2026-05-08 15:05 231K
20260508T12Z_MSC_RDPS_GeopotentialHeight_IsbL-0400_RLatLon0.09_PT082H.grib2 2026-05-08 15:05 300K
20260508T12Z_MSC_RDPS_GeopotentialHeight_IsbL-0450_RLatLon0.09_PT082H.grib2 2026-05-08 15:05 296K
20260508T12Z_MSC_RDPS_GeopotentialHeight_IsbL-0500_RLatLon0.09_PT082H.grib2 2026-05-08 15:05 291K
20260508T12Z_MSC_RDPS_GeopotentialHeight_IsbL-0550_RLatLon0.09_PT082H.grib2 2026-05-08 15:05 287K
20260508T12Z_MSC_RDPS_GeopotentialHeight_IsbL-0600_RLatLon0.09_PT082H.grib2 2026-05-08 15:05 258K
20260508T12Z_MSC_RDPS_GeopotentialHeight_IsbL-0650_RLatLon0.09_PT082H.grib2 2026-05-08 15:05 256K
20260508T12Z_MSC_RDPS_GeopotentialHeight_IsbL-0700_RLatLon0.09_PT082H.grib2 2026-05-08 15:05 256K
20260508T12Z_MSC_RDPS_GeopotentialHeight_IsbL-0750_RLatLon0.09_PT082H.grib2 2026-05-08 15:05 340K
20260508T12Z_MSC_RDPS_GeopotentialHeight_IsbL-0800_RLatLon0.09_PT082H.grib2 2026-05-08 15:05 347K
20260508T12Z_MSC_RDPS_GeopotentialHeight_IsbL-0850_RLatLon0.09_PT082H.grib2 2026-05-08 15:05 355K
20260508T12Z_MSC_RDPS_GeopotentialHeight_IsbL-0875_RLatLon0.09_PT082H.grib2 2026-05-08 15:05 356K
20260508T12Z_MSC_RDPS_GeopotentialHeight_IsbL-0900_RLatLon0.09_PT082H.grib2 2026-05-08 15:05 360K
20260508T12Z_MSC_RDPS_GeopotentialHeight_IsbL-0925_RLatLon0.09_PT082H.grib2 2026-05-08 15:05 362K
20260508T12Z_MSC_RDPS_GeopotentialHeight_IsbL-0950_RLatLon0.09_PT082H.grib2 2026-05-08 15:05 368K
20260508T12Z_MSC_RDPS_GeopotentialHeight_IsbL-0970_RLatLon0.09_PT082H.grib2 2026-05-08 15:05 373K
20260508T12Z_MSC_RDPS_GeopotentialHeight_IsbL-0985_RLatLon0.09_PT082H.grib2 2026-05-08 15:05 383K
20260508T12Z_MSC_RDPS_GeopotentialHeight_IsbL-1000_RLatLon0.09_PT082H.grib2 2026-05-08 15:05 396K
20260508T12Z_MSC_RDPS_GeopotentialHeight_IsbL-1015_RLatLon0.09_PT082H.grib2 2026-05-08 15:05 413K
20260508T12Z_MSC_RDPS_HighLowPressure_MSL_RLatLon0.09_PT082H.json 2026-05-08 14:58 22K
20260508T12Z_MSC_RDPS_Humidex_Sfc_RLatLon0.09_PT082H.grib2 2026-05-08 15:05 2.4M
20260508T12Z_MSC_RDPS_IcePellets-Accum1h_Sfc_RLatLon0.09_PT082H.grib2 2026-05-08 15:05 12K
20260508T12Z_MSC_RDPS_IcePellets-Accum_Sfc_RLatLon0.09_PT082H.grib2 2026-05-08 15:05 55K
20260508T12Z_MSC_RDPS_KIndex_Sfc_RLatLon0.09_PT082H.grib2 2026-05-08 15:05 2.5M
20260508T12Z_MSC_RDPS_LatentHeatNetFlux_Sfc_RLatLon0.09_PT082H.grib2 2026-05-08 15:05 310K
20260508T12Z_MSC_RDPS_LiftedIndex-MU-VT_IsbL-0500_RLatLon0.09_PT082H.grib2 2026-05-08 15:05 2.4M
20260508T12Z_MSC_RDPS_NetLongwaveRadiationFlux-Accum_Sfc_RLatLon0.09_PT082H.grib2 2026-05-08 15:05 496K
20260508T12Z_MSC_RDPS_NetShortwaveRadiationFlux-Accum_Sfc_RLatLon0.09_PT082H.grib2 2026-05-08 15:05 525K
20260508T12Z_MSC_RDPS_PlanetaryBoundaryLayerHeight_Sfc_RLatLon0.09_PT082H.grib2 2026-05-08 15:05 1.0M
20260508T12Z_MSC_RDPS_Precip-Accum1h_Sfc_RLatLon0.09_PT082H.grib2 2026-05-08 15:05 1.2M
20260508T12Z_MSC_RDPS_Precip-Accum_Sfc_RLatLon0.09_PT082H.grib2 2026-05-08 15:05 2.1M
20260508T12Z_MSC_RDPS_PrecipRate_Sfc_RLatLon0.09_PT082H.grib2 2026-05-08 15:05 177K
20260508T12Z_MSC_RDPS_PrecipType-Instant_Sfc_RLatLon0.09_PT082H.grib2 2026-05-08 15:05 636K
20260508T12Z_MSC_RDPS_Pressure-Trend3h_Sfc_RLatLon0.09_PT082H.grib2 2026-05-08 15:05 1.2M
20260508T12Z_MSC_RDPS_Pressure_MSL_RLatLon0.09_PT082H.grib2 2026-05-08 15:05 328K
20260508T12Z_MSC_RDPS_Pressure_PVU-1.5_RLatLon0.09_PT082H.grib2 2026-05-08 15:05 2.5M
20260508T12Z_MSC_RDPS_Pressure_PVU-1_RLatLon0.09_PT082H.grib2 2026-05-08 15:05 2.4M
20260508T12Z_MSC_RDPS_Pressure_PVU-2_RLatLon0.09_PT082H.grib2 2026-05-08 15:05 2.4M
20260508T12Z_MSC_RDPS_Pressure_Sfc_RLatLon0.09_PT082H.grib2 2026-05-08 15:05 498K
20260508T12Z_MSC_RDPS_RadiativeTemp_Sfc_RLatLon0.09_PT082H.grib2 2026-05-08 15:05 331K
20260508T12Z_MSC_RDPS_Rain-Accum1h_Sfc_RLatLon0.09_PT082H.grib2 2026-05-08 15:05 608K
20260508T12Z_MSC_RDPS_Rain-Accum_Sfc_RLatLon0.09_PT082H.grib2 2026-05-08 15:05 1.9M
20260508T12Z_MSC_RDPS_RelativeHumidity_AGL-2m_RLatLon0.09_PT082H.grib2 2026-05-08 15:05 1.0M
20260508T12Z_MSC_RDPS_RelativeHumidity_IsbL-0010_RLatLon0.09_PT082H.grib2 2026-05-08 15:05 544K
20260508T12Z_MSC_RDPS_RelativeHumidity_IsbL-0020_RLatLon0.09_PT082H.grib2 2026-05-08 15:05 618K
20260508T12Z_MSC_RDPS_RelativeHumidity_IsbL-0030_RLatLon0.09_PT082H.grib2 2026-05-08 15:05 618K
20260508T12Z_MSC_RDPS_RelativeHumidity_IsbL-0050_RLatLon0.09_PT082H.grib2 2026-05-08 15:05 355K
20260508T12Z_MSC_RDPS_RelativeHumidity_IsbL-0100_RLatLon0.09_PT082H.grib2 2026-05-08 15:05 276K
20260508T12Z_MSC_RDPS_RelativeHumidity_IsbL-0150_RLatLon0.09_PT082H.grib2 2026-05-08 15:05 417K
20260508T12Z_MSC_RDPS_RelativeHumidity_IsbL-0175_RLatLon0.09_PT082H.grib2 2026-05-08 15:05 477K
20260508T12Z_MSC_RDPS_RelativeHumidity_IsbL-0200_RLatLon0.09_PT082H.grib2 2026-05-08 15:05 547K
20260508T12Z_MSC_RDPS_RelativeHumidity_IsbL-0225_RLatLon0.09_PT082H.grib2 2026-05-08 15:05 623K
20260508T12Z_MSC_RDPS_RelativeHumidity_IsbL-0250_RLatLon0.09_PT082H.grib2 2026-05-08 15:05 705K
20260508T12Z_MSC_RDPS_RelativeHumidity_IsbL-0275_RLatLon0.09_PT082H.grib2 2026-05-08 15:05 732K
20260508T12Z_MSC_RDPS_RelativeHumidity_IsbL-0300_RLatLon0.09_PT082H.grib2 2026-05-08 15:05 772K
20260508T12Z_MSC_RDPS_RelativeHumidity_IsbL-0350_RLatLon0.09_PT082H.grib2 2026-05-08 15:05 784K
20260508T12Z_MSC_RDPS_RelativeHumidity_IsbL-0400_RLatLon0.09_PT082H.grib2 2026-05-08 15:05 804K
20260508T12Z_MSC_RDPS_RelativeHumidity_IsbL-0450_RLatLon0.09_PT082H.grib2 2026-05-08 15:05 819K
20260508T12Z_MSC_RDPS_RelativeHumidity_IsbL-0500_RLatLon0.09_PT082H.grib2 2026-05-08 15:05 828K
20260508T12Z_MSC_RDPS_RelativeHumidity_IsbL-0550_RLatLon0.09_PT082H.grib2 2026-05-08 15:05 847K
20260508T12Z_MSC_RDPS_RelativeHumidity_IsbL-0600_RLatLon0.09_PT082H.grib2 2026-05-08 15:05 869K
20260508T12Z_MSC_RDPS_RelativeHumidity_IsbL-0650_RLatLon0.09_PT082H.grib2 2026-05-08 15:05 886K
20260508T12Z_MSC_RDPS_RelativeHumidity_IsbL-0700_RLatLon0.09_PT082H.grib2 2026-05-08 15:05 913K
20260508T12Z_MSC_RDPS_RelativeHumidity_IsbL-0750_RLatLon0.09_PT082H.grib2 2026-05-08 15:05 960K
20260508T12Z_MSC_RDPS_RelativeHumidity_IsbL-0800_RLatLon0.09_PT082H.grib2 2026-05-08 15:05 1.0M
20260508T12Z_MSC_RDPS_RelativeHumidity_IsbL-0850_RLatLon0.09_PT082H.grib2 2026-05-08 15:05 1.0M
20260508T12Z_MSC_RDPS_RelativeHumidity_IsbL-0875_RLatLon0.09_PT082H.grib2 2026-05-08 15:05 1.0M
20260508T12Z_MSC_RDPS_RelativeHumidity_IsbL-0900_RLatLon0.09_PT082H.grib2 2026-05-08 15:05 1.1M
20260508T12Z_MSC_RDPS_RelativeHumidity_IsbL-0925_RLatLon0.09_PT082H.grib2 2026-05-08 15:05 1.1M
20260508T12Z_MSC_RDPS_RelativeHumidity_IsbL-0950_RLatLon0.09_PT082H.grib2 2026-05-08 15:05 1.1M
20260508T12Z_MSC_RDPS_RelativeHumidity_IsbL-0970_RLatLon0.09_PT082H.grib2 2026-05-08 15:05 1.1M
20260508T12Z_MSC_RDPS_RelativeHumidity_IsbL-0985_RLatLon0.09_PT082H.grib2 2026-05-08 15:05 1.0M
20260508T12Z_MSC_RDPS_RelativeHumidity_IsbL-1000_RLatLon0.09_PT082H.grib2 2026-05-08 15:05 1.0M
20260508T12Z_MSC_RDPS_RelativeHumidity_IsbL-1015_RLatLon0.09_PT082H.grib2 2026-05-08 15:05 1.0M
20260508T12Z_MSC_RDPS_Runoff-Accum_Sfc_RLatLon0.09_PT082H.grib2 2026-05-08 15:05 55K
20260508T12Z_MSC_RDPS_SWEATIndex_Sfc_RLatLon0.09_PT082H.grib2 2026-05-08 15:05 2.5M
20260508T12Z_MSC_RDPS_SeeingIndex_EAtm_RLatLon0.09_PT082H.grib2 2026-05-08 15:05 1.1M
20260508T12Z_MSC_RDPS_SensibleHeatNetFlux_Sfc_RLatLon0.09_PT082H.grib2 2026-05-08 15:05 350K
20260508T12Z_MSC_RDPS_ShowalterIndex_IsbL-0500_RLatLon0.09_PT082H.grib2 2026-05-08 15:05 2.6M
20260508T12Z_MSC_RDPS_SkyTransparencyIndex_EAtm_RLatLon0.09_PT082H.grib2 2026-05-08 15:05 713K
20260508T12Z_MSC_RDPS_Snow-Accum1h_Sfc_RLatLon0.09_PT082H.grib2 2026-05-08 15:05 455K
20260508T12Z_MSC_RDPS_Snow-Accum_Sfc_RLatLon0.09_PT082H.grib2 2026-05-08 15:05 692K
20260508T12Z_MSC_RDPS_SnowDensity_Sfc_RLatLon0.09_PT082H.grib2 2026-05-08 15:05 171K
20260508T12Z_MSC_RDPS_SnowDepth_Sfc_RLatLon0.09_PT082H.grib2 2026-05-08 15:05 613K
20260508T12Z_MSC_RDPS_SoilTemp_DBS-0to10cm_RLatLon0.09_PT082H.grib2 2026-05-08 15:05 249K
20260508T12Z_MSC_RDPS_SoilTemp_Sfc_RLatLon0.09_PT082H.grib2 2026-05-08 15:05 292K
20260508T12Z_MSC_RDPS_SoilVolumetricIceContent_Sfc_RLatLon0.09_PT082H.grib2 2026-05-08 15:05 140K
20260508T12Z_MSC_RDPS_SoilVolumetricWaterContent_DBS-0to10cm_RLatLon0.09_PT082H.grib2 2026-05-08 15:05 296K
20260508T12Z_MSC_RDPS_SoilVolumetricWaterContent_DBS-0to1cm_RLatLon0.09_PT082H.grib2 2026-05-08 15:05 347K
20260508T12Z_MSC_RDPS_SpecificHumidity_AGL-120m_RLatLon0.09_PT082H.grib2 2026-05-08 15:05 508K
20260508T12Z_MSC_RDPS_SpecificHumidity_AGL-2m_RLatLon0.09_PT082H.grib2 2026-05-08 15:05 683K
20260508T12Z_MSC_RDPS_SpecificHumidity_AGL-40m_RLatLon0.09_PT082H.grib2 2026-05-08 15:05 513K
20260508T12Z_MSC_RDPS_SpecificHumidity_AGL-80m_RLatLon0.09_PT082H.grib2 2026-05-08 15:05 509K
20260508T12Z_MSC_RDPS_SpecificHumidity_IsbL-0001_RLatLon0.09_PT082H.grib2 2026-05-08 15:05 368K
20260508T12Z_MSC_RDPS_SpecificHumidity_IsbL-0005_RLatLon0.09_PT082H.grib2 2026-05-08 15:05 356K
20260508T12Z_MSC_RDPS_SpecificHumidity_IsbL-0010_RLatLon0.09_PT082H.grib2 2026-05-08 15:05 383K
20260508T12Z_MSC_RDPS_SpecificHumidity_IsbL-0020_RLatLon0.09_PT082H.grib2 2026-05-08 15:05 446K
20260508T12Z_MSC_RDPS_SpecificHumidity_IsbL-0030_RLatLon0.09_PT082H.grib2 2026-05-08 15:05 359K
20260508T12Z_MSC_RDPS_SpecificHumidity_IsbL-0050_RLatLon0.09_PT082H.grib2 2026-05-08 15:05 358K
20260508T12Z_MSC_RDPS_SpecificHumidity_IsbL-0100_RLatLon0.09_PT082H.grib2 2026-05-08 15:05 399K
20260508T12Z_MSC_RDPS_SpecificHumidity_IsbL-0150_RLatLon0.09_PT082H.grib2 2026-05-08 15:05 460K
20260508T12Z_MSC_RDPS_SpecificHumidity_IsbL-0175_RLatLon0.09_PT082H.grib2 2026-05-08 15:05 441K
20260508T12Z_MSC_RDPS_SpecificHumidity_IsbL-0200_RLatLon0.09_PT082H.grib2 2026-05-08 15:05 462K
20260508T12Z_MSC_RDPS_SpecificHumidity_IsbL-0225_RLatLon0.09_PT082H.grib2 2026-05-08 15:05 484K
20260508T12Z_MSC_RDPS_SpecificHumidity_IsbL-0250_RLatLon0.09_PT082H.grib2 2026-05-08 15:05 536K
20260508T12Z_MSC_RDPS_SpecificHumidity_IsbL-0275_RLatLon0.09_PT082H.grib2 2026-05-08 15:05 495K
20260508T12Z_MSC_RDPS_SpecificHumidity_IsbL-0300_RLatLon0.09_PT082H.grib2 2026-05-08 15:05 467K
20260508T12Z_MSC_RDPS_SpecificHumidity_IsbL-0350_RLatLon0.09_PT082H.grib2 2026-05-08 15:05 458K
20260508T12Z_MSC_RDPS_SpecificHumidity_IsbL-0400_RLatLon0.09_PT082H.grib2 2026-05-08 15:05 544K
20260508T12Z_MSC_RDPS_SpecificHumidity_IsbL-0450_RLatLon0.09_PT082H.grib2 2026-05-08 15:05 485K
20260508T12Z_MSC_RDPS_SpecificHumidity_IsbL-0500_RLatLon0.09_PT082H.grib2 2026-05-08 15:05 541K
20260508T12Z_MSC_RDPS_SpecificHumidity_IsbL-0550_RLatLon0.09_PT082H.grib2 2026-05-08 15:05 617K
20260508T12Z_MSC_RDPS_SpecificHumidity_IsbL-0600_RLatLon0.09_PT082H.grib2 2026-05-08 15:05 673K
20260508T12Z_MSC_RDPS_SpecificHumidity_IsbL-0650_RLatLon0.09_PT082H.grib2 2026-05-08 15:05 592K
20260508T12Z_MSC_RDPS_SpecificHumidity_IsbL-0700_RLatLon0.09_PT082H.grib2 2026-05-08 15:05 641K
20260508T12Z_MSC_RDPS_SpecificHumidity_IsbL-0750_RLatLon0.09_PT082H.grib2 2026-05-08 15:05 698K
20260508T12Z_MSC_RDPS_SpecificHumidity_IsbL-0800_RLatLon0.09_PT082H.grib2 2026-05-08 15:05 782K
20260508T12Z_MSC_RDPS_SpecificHumidity_IsbL-0850_RLatLon0.09_PT082H.grib2 2026-05-08 15:05 835K
20260508T12Z_MSC_RDPS_SpecificHumidity_IsbL-0875_RLatLon0.09_PT082H.grib2 2026-05-08 15:05 711K
20260508T12Z_MSC_RDPS_SpecificHumidity_IsbL-0900_RLatLon0.09_PT082H.grib2 2026-05-08 15:05 719K
20260508T12Z_MSC_RDPS_SpecificHumidity_IsbL-0925_RLatLon0.09_PT082H.grib2 2026-05-08 15:05 726K
20260508T12Z_MSC_RDPS_SpecificHumidity_IsbL-0950_RLatLon0.09_PT082H.grib2 2026-05-08 15:05 731K
20260508T12Z_MSC_RDPS_SpecificHumidity_IsbL-0970_RLatLon0.09_PT082H.grib2 2026-05-08 15:05 726K
20260508T12Z_MSC_RDPS_SpecificHumidity_IsbL-0985_RLatLon0.09_PT082H.grib2 2026-05-08 15:05 717K
20260508T12Z_MSC_RDPS_SpecificHumidity_IsbL-1000_RLatLon0.09_PT082H.grib2 2026-05-08 15:05 708K
20260508T12Z_MSC_RDPS_SpecificHumidity_IsbL-1015_RLatLon0.09_PT082H.grib2 2026-05-08 15:05 697K
20260508T12Z_MSC_RDPS_SpecificHumidity_Sfc_RLatLon0.09_PT082H.grib2 2026-05-08 15:05 361K
20260508T12Z_MSC_RDPS_StormRelativeHelicity_EtaL-10000_RLatLon0.09_PT082H.grib2 2026-05-08 15:05 1.2M
20260508T12Z_MSC_RDPS_StormSeverityIndex_EtaL-10000_RLatLon0.09_PT082H.grib2 2026-05-08 15:05 1.1M
20260508T12Z_MSC_RDPS_Thickness_IsbL-0850to0700_RLatLon0.09_PT082H.grib2 2026-05-08 15:05 249K
20260508T12Z_MSC_RDPS_Thickness_IsbL-1000to0500_RLatLon0.09_PT082H.grib2 2026-05-08 15:05 198K
20260508T12Z_MSC_RDPS_Thickness_IsbL-1000to0850_RLatLon0.09_PT082H.grib2 2026-05-08 15:05 262K
20260508T12Z_MSC_RDPS_TotalCloudCover_Sfc_RLatLon0.09_PT082H.grib2 2026-05-08 15:05 674K
20260508T12Z_MSC_RDPS_TotalTotalsIndex_Sfc_RLatLon0.09_PT082H.grib2 2026-05-08 15:05 2.4M
20260508T12Z_MSC_RDPS_UVIndex-ClearSky_Sfc_RLatLon0.09_PT082H.grib2 2026-05-08 15:05 180K
20260508T12Z_MSC_RDPS_UVIndex_Sfc_RLatLon0.09_PT082H.grib2 2026-05-08 15:05 435K
20260508T12Z_MSC_RDPS_UpwardLongwaveRadiationFlux_NTAtm_RLatLon0.09_PT082H.grib2 2026-05-08 15:05 391K
20260508T12Z_MSC_RDPS_UpwardShortwaveRadiationFlux_NTAtm_RLatLon0.09_PT082H.grib2 2026-05-08 15:05 475K
20260508T12Z_MSC_RDPS_VerticalVelocity_IsbL-0250_RLatLon0.09_PT082H.grib2 2026-05-08 15:05 573K
20260508T12Z_MSC_RDPS_VerticalVelocity_IsbL-0500_RLatLon0.09_PT082H.grib2 2026-05-08 15:05 542K
20260508T12Z_MSC_RDPS_VerticalVelocity_IsbL-0700_RLatLon0.09_PT082H.grib2 2026-05-08 15:05 603K
20260508T12Z_MSC_RDPS_VerticalVelocity_IsbL-0850_RLatLon0.09_PT082H.grib2 2026-05-08 15:05 707K
20260508T12Z_MSC_RDPS_VerticalWindShear_EtaL-6500_RLatLon0.09_PT082H.grib2 2026-05-08 15:05 1.2M
20260508T12Z_MSC_RDPS_WindChill_Sfc_RLatLon0.09_PT082H.grib2 2026-05-08 15:05 1.2M
20260508T12Z_MSC_RDPS_WindDir_AGL-10m_RLatLon0.09_PT082H.grib2 2026-05-08 15:05 967K
20260508T12Z_MSC_RDPS_WindDir_AGL-120m_RLatLon0.09_PT082H.grib2 2026-05-08 15:05 614K
20260508T12Z_MSC_RDPS_WindDir_AGL-40m_RLatLon0.09_PT082H.grib2 2026-05-08 15:05 635K
20260508T12Z_MSC_RDPS_WindDir_AGL-80m_RLatLon0.09_PT082H.grib2 2026-05-08 15:05 622K
20260508T12Z_MSC_RDPS_WindDir_IsbL-0001_RLatLon0.09_PT082H.grib2 2026-05-08 15:05 287K
20260508T12Z_MSC_RDPS_WindDir_IsbL-0005_RLatLon0.09_PT082H.grib2 2026-05-08 15:05 367K
20260508T12Z_MSC_RDPS_WindDir_IsbL-0010_RLatLon0.09_PT082H.grib2 2026-05-08 15:05 412K
20260508T12Z_MSC_RDPS_WindDir_IsbL-0020_RLatLon0.09_PT082H.grib2 2026-05-08 15:05 451K
20260508T12Z_MSC_RDPS_WindDir_IsbL-0030_RLatLon0.09_PT082H.grib2 2026-05-08 15:05 438K
20260508T12Z_MSC_RDPS_WindDir_IsbL-0050_RLatLon0.09_PT082H.grib2 2026-05-08 15:05 433K
20260508T12Z_MSC_RDPS_WindDir_IsbL-0100_RLatLon0.09_PT082H.grib2 2026-05-08 15:05 422K
20260508T12Z_MSC_RDPS_WindDir_IsbL-0150_RLatLon0.09_PT082H.grib2 2026-05-08 15:05 425K
20260508T12Z_MSC_RDPS_WindDir_IsbL-0175_RLatLon0.09_PT082H.grib2 2026-05-08 15:05 449K
20260508T12Z_MSC_RDPS_WindDir_IsbL-0200_RLatLon0.09_PT082H.grib2 2026-05-08 15:05 457K
20260508T12Z_MSC_RDPS_WindDir_IsbL-0225_RLatLon0.09_PT082H.grib2 2026-05-08 15:05 460K
20260508T12Z_MSC_RDPS_WindDir_IsbL-0250_RLatLon0.09_PT082H.grib2 2026-05-08 15:05 460K
20260508T12Z_MSC_RDPS_WindDir_IsbL-0275_RLatLon0.09_PT082H.grib2 2026-05-08 15:05 485K
20260508T12Z_MSC_RDPS_WindDir_IsbL-0300_RLatLon0.09_PT082H.grib2 2026-05-08 15:05 480K
20260508T12Z_MSC_RDPS_WindDir_IsbL-0350_RLatLon0.09_PT082H.grib2 2026-05-08 15:05 500K
20260508T12Z_MSC_RDPS_WindDir_IsbL-0400_RLatLon0.09_PT082H.grib2 2026-05-08 15:05 520K
20260508T12Z_MSC_RDPS_WindDir_IsbL-0450_RLatLon0.09_PT082H.grib2 2026-05-08 15:05 545K
20260508T12Z_MSC_RDPS_WindDir_IsbL-0500_RLatLon0.09_PT082H.grib2 2026-05-08 15:05 567K
20260508T12Z_MSC_RDPS_WindDir_IsbL-0550_RLatLon0.09_PT082H.grib2 2026-05-08 15:05 581K
20260508T12Z_MSC_RDPS_WindDir_IsbL-0600_RLatLon0.09_PT082H.grib2 2026-05-08 15:05 603K
20260508T12Z_MSC_RDPS_WindDir_IsbL-0650_RLatLon0.09_PT082H.grib2 2026-05-08 15:05 640K
20260508T12Z_MSC_RDPS_WindDir_IsbL-0700_RLatLon0.09_PT082H.grib2 2026-05-08 15:05 681K
20260508T12Z_MSC_RDPS_WindDir_IsbL-0750_RLatLon0.09_PT082H.grib2 2026-05-08 15:05 723K
20260508T12Z_MSC_RDPS_WindDir_IsbL-0800_RLatLon0.09_PT082H.grib2 2026-05-08 15:05 797K
20260508T12Z_MSC_RDPS_WindDir_IsbL-0850_RLatLon0.09_PT082H.grib2 2026-05-08 15:05 859K
20260508T12Z_MSC_RDPS_WindDir_IsbL-0875_RLatLon0.09_PT082H.grib2 2026-05-08 15:05 880K
20260508T12Z_MSC_RDPS_WindDir_IsbL-0900_RLatLon0.09_PT082H.grib2 2026-05-08 15:05 903K
20260508T12Z_MSC_RDPS_WindDir_IsbL-0925_RLatLon0.09_PT082H.grib2 2026-05-08 15:05 917K
20260508T12Z_MSC_RDPS_WindDir_IsbL-0950_RLatLon0.09_PT082H.grib2 2026-05-08 15:05 920K
20260508T12Z_MSC_RDPS_WindDir_IsbL-0970_RLatLon0.09_PT082H.grib2 2026-05-08 15:05 921K
20260508T12Z_MSC_RDPS_WindDir_IsbL-0985_RLatLon0.09_PT082H.grib2 2026-05-08 15:05 929K
20260508T12Z_MSC_RDPS_WindDir_IsbL-1000_RLatLon0.09_PT082H.grib2 2026-05-08 15:05 945K
20260508T12Z_MSC_RDPS_WindDir_IsbL-1015_RLatLon0.09_PT082H.grib2 2026-05-08 15:05 962K
20260508T12Z_MSC_RDPS_WindGust-Max_AGL-10m_RLatLon0.09_PT082H.grib2 2026-05-08 15:05 1.0M
20260508T12Z_MSC_RDPS_WindGust-Min_AGL-10m_RLatLon0.09_PT082H.grib2 2026-05-08 15:05 1.0M
20260508T12Z_MSC_RDPS_WindGust_AGL-10m_RLatLon0.09_PT082H.grib2 2026-05-08 15:05 1.0M
20260508T12Z_MSC_RDPS_WindSpeed_AGL-10m_RLatLon0.09_PT082H.grib2 2026-05-08 15:05 846K
20260508T12Z_MSC_RDPS_WindSpeed_AGL-120m_RLatLon0.09_PT082H.grib2 2026-05-08 15:05 549K
20260508T12Z_MSC_RDPS_WindSpeed_AGL-40m_RLatLon0.09_PT082H.grib2 2026-05-08 15:05 543K
20260508T12Z_MSC_RDPS_WindSpeed_AGL-80m_RLatLon0.09_PT082H.grib2 2026-05-08 15:05 539K
20260508T12Z_MSC_RDPS_WindSpeed_IsbL-0001_RLatLon0.09_PT082H.grib2 2026-05-08 15:05 255K
20260508T12Z_MSC_RDPS_WindSpeed_IsbL-0005_RLatLon0.09_PT082H.grib2 2026-05-08 15:05 380K
20260508T12Z_MSC_RDPS_WindSpeed_IsbL-0010_RLatLon0.09_PT082H.grib2 2026-05-08 15:05 366K
20260508T12Z_MSC_RDPS_WindSpeed_IsbL-0020_RLatLon0.09_PT082H.grib2 2026-05-08 15:05 330K
20260508T12Z_MSC_RDPS_WindSpeed_IsbL-0030_RLatLon0.09_PT082H.grib2 2026-05-08 15:05 326K
20260508T12Z_MSC_RDPS_WindSpeed_IsbL-0050_RLatLon0.09_PT082H.grib2 2026-05-08 15:05 447K
20260508T12Z_MSC_RDPS_WindSpeed_IsbL-0100_RLatLon0.09_PT082H.grib2 2026-05-08 15:05 469K
20260508T12Z_MSC_RDPS_WindSpeed_IsbL-0150_RLatLon0.09_PT082H.grib2 2026-05-08 15:05 371K
20260508T12Z_MSC_RDPS_WindSpeed_IsbL-0175_RLatLon0.09_PT082H.grib2 2026-05-08 15:05 398K
20260508T12Z_MSC_RDPS_WindSpeed_IsbL-0200_RLatLon0.09_PT082H.grib2 2026-05-08 15:05 437K
20260508T12Z_MSC_RDPS_WindSpeed_IsbL-0225_RLatLon0.09_PT082H.grib2 2026-05-08 15:05 447K
20260508T12Z_MSC_RDPS_WindSpeed_IsbL-0250_RLatLon0.09_PT082H.grib2 2026-05-08 15:05 453K
20260508T12Z_MSC_RDPS_WindSpeed_IsbL-0275_RLatLon0.09_PT082H.grib2 2026-05-08 15:05 474K
20260508T12Z_MSC_RDPS_WindSpeed_IsbL-0300_RLatLon0.09_PT082H.grib2 2026-05-08 15:05 472K
20260508T12Z_MSC_RDPS_WindSpeed_IsbL-0350_RLatLon0.09_PT082H.grib2 2026-05-08 15:05 478K
20260508T12Z_MSC_RDPS_WindSpeed_IsbL-0400_RLatLon0.09_PT082H.grib2 2026-05-08 15:05 478K
20260508T12Z_MSC_RDPS_WindSpeed_IsbL-0450_RLatLon0.09_PT082H.grib2 2026-05-08 15:05 465K
20260508T12Z_MSC_RDPS_WindSpeed_IsbL-0500_RLatLon0.09_PT082H.grib2 2026-05-08 15:05 471K
20260508T12Z_MSC_RDPS_WindSpeed_IsbL-0550_RLatLon0.09_PT082H.grib2 2026-05-08 15:05 473K
20260508T12Z_MSC_RDPS_WindSpeed_IsbL-0600_RLatLon0.09_PT082H.grib2 2026-05-08 15:05 600K
20260508T12Z_MSC_RDPS_WindSpeed_IsbL-0650_RLatLon0.09_PT082H.grib2 2026-05-08 15:05 620K
20260508T12Z_MSC_RDPS_WindSpeed_IsbL-0700_RLatLon0.09_PT082H.grib2 2026-05-08 15:05 690K
20260508T12Z_MSC_RDPS_WindSpeed_IsbL-0750_RLatLon0.09_PT082H.grib2 2026-05-08 15:05 719K
20260508T12Z_MSC_RDPS_WindSpeed_IsbL-0800_RLatLon0.09_PT082H.grib2 2026-05-08 15:05 769K
20260508T12Z_MSC_RDPS_WindSpeed_IsbL-0850_RLatLon0.09_PT082H.grib2 2026-05-08 15:05 818K
20260508T12Z_MSC_RDPS_WindSpeed_IsbL-0875_RLatLon0.09_PT082H.grib2 2026-05-08 15:05 836K
20260508T12Z_MSC_RDPS_WindSpeed_IsbL-0900_RLatLon0.09_PT082H.grib2 2026-05-08 15:05 852K
20260508T12Z_MSC_RDPS_WindSpeed_IsbL-0925_RLatLon0.09_PT082H.grib2 2026-05-08 15:05 866K
20260508T12Z_MSC_RDPS_WindSpeed_IsbL-0950_RLatLon0.09_PT082H.grib2 2026-05-08 15:05 865K
20260508T12Z_MSC_RDPS_WindSpeed_IsbL-0970_RLatLon0.09_PT082H.grib2 2026-05-08 15:05 864K
20260508T12Z_MSC_RDPS_WindSpeed_IsbL-0985_RLatLon0.09_PT082H.grib2 2026-05-08 15:05 860K
20260508T12Z_MSC_RDPS_WindSpeed_IsbL-1000_RLatLon0.09_PT082H.grib2 2026-05-08 15:05 854K
20260508T12Z_MSC_RDPS_WindSpeed_IsbL-1015_RLatLon0.09_PT082H.grib2 2026-05-08 15:05 847K
20260508T12Z_MSC_RDPS_WindU_AGL-10m_RLatLon0.09_PT082H.grib2 2026-05-08 15:05 437K
20260508T12Z_MSC_RDPS_WindU_AGL-120m_RLatLon0.09_PT082H.grib2 2026-05-08 15:05 535K
20260508T12Z_MSC_RDPS_WindU_AGL-40m_RLatLon0.09_PT082H.grib2 2026-05-08 15:05 540K
20260508T12Z_MSC_RDPS_WindU_AGL-80m_RLatLon0.09_PT082H.grib2 2026-05-08 15:05 537K
20260508T12Z_MSC_RDPS_WindU_IsbL-0001_RLatLon0.09_PT082H.grib2 2026-05-08 15:05 294K
20260508T12Z_MSC_RDPS_WindU_IsbL-0005_RLatLon0.09_PT082H.grib2 2026-05-08 15:05 287K
20260508T12Z_MSC_RDPS_WindU_IsbL-0010_RLatLon0.09_PT082H.grib2 2026-05-08 15:05 299K
20260508T12Z_MSC_RDPS_WindU_IsbL-0020_RLatLon0.09_PT082H.grib2 2026-05-08 15:05 357K
20260508T12Z_MSC_RDPS_WindU_IsbL-0030_RLatLon0.09_PT082H.grib2 2026-05-08 15:05 353K
20260508T12Z_MSC_RDPS_WindU_IsbL-0050_RLatLon0.09_PT082H.grib2 2026-05-08 15:05 339K
20260508T12Z_MSC_RDPS_WindU_IsbL-0100_RLatLon0.09_PT082H.grib2 2026-05-08 15:05 426K
20260508T12Z_MSC_RDPS_WindU_IsbL-0150_RLatLon0.09_PT082H.grib2 2026-05-08 15:05 389K
20260508T12Z_MSC_RDPS_WindU_IsbL-0175_RLatLon0.09_PT082H.grib2 2026-05-08 15:05 413K
20260508T12Z_MSC_RDPS_WindU_IsbL-0200_RLatLon0.09_PT082H.grib2 2026-05-08 15:05 431K
20260508T12Z_MSC_RDPS_WindU_IsbL-0225_RLatLon0.09_PT082H.grib2 2026-05-08 15:05 440K
20260508T12Z_MSC_RDPS_WindU_IsbL-0250_RLatLon0.09_PT082H.grib2 2026-05-08 15:05 444K
20260508T12Z_MSC_RDPS_WindU_IsbL-0275_RLatLon0.09_PT082H.grib2 2026-05-08 15:05 361K
20260508T12Z_MSC_RDPS_WindU_IsbL-0300_RLatLon0.09_PT082H.grib2 2026-05-08 15:05 357K
20260508T12Z_MSC_RDPS_WindU_IsbL-0350_RLatLon0.09_PT082H.grib2 2026-05-08 15:05 363K
20260508T12Z_MSC_RDPS_WindU_IsbL-0400_RLatLon0.09_PT082H.grib2 2026-05-08 15:05 466K
20260508T12Z_MSC_RDPS_WindU_IsbL-0450_RLatLon0.09_PT082H.grib2 2026-05-08 15:05 471K
20260508T12Z_MSC_RDPS_WindU_IsbL-0500_RLatLon0.09_PT082H.grib2 2026-05-08 15:05 476K
20260508T12Z_MSC_RDPS_WindU_IsbL-0550_RLatLon0.09_PT082H.grib2 2026-05-08 15:05 478K
20260508T12Z_MSC_RDPS_WindU_IsbL-0600_RLatLon0.09_PT082H.grib2 2026-05-08 15:05 469K
20260508T12Z_MSC_RDPS_WindU_IsbL-0650_RLatLon0.09_PT082H.grib2 2026-05-08 15:05 490K
20260508T12Z_MSC_RDPS_WindU_IsbL-0700_RLatLon0.09_PT082H.grib2 2026-05-08 15:05 514K
20260508T12Z_MSC_RDPS_WindU_IsbL-0750_RLatLon0.09_PT082H.grib2 2026-05-08 15:05 540K
20260508T12Z_MSC_RDPS_WindU_IsbL-0800_RLatLon0.09_PT082H.grib2 2026-05-08 15:05 583K
20260508T12Z_MSC_RDPS_WindU_IsbL-0850_RLatLon0.09_PT082H.grib2 2026-05-08 15:05 626K
20260508T12Z_MSC_RDPS_WindU_IsbL-0875_RLatLon0.09_PT082H.grib2 2026-05-08 15:05 641K
20260508T12Z_MSC_RDPS_WindU_IsbL-0900_RLatLon0.09_PT082H.grib2 2026-05-08 15:05 653K
20260508T12Z_MSC_RDPS_WindU_IsbL-0925_RLatLon0.09_PT082H.grib2 2026-05-08 15:05 663K
20260508T12Z_MSC_RDPS_WindU_IsbL-0950_RLatLon0.09_PT082H.grib2 2026-05-08 15:05 804K
20260508T12Z_MSC_RDPS_WindU_IsbL-0970_RLatLon0.09_PT082H.grib2 2026-05-08 15:05 800K
20260508T12Z_MSC_RDPS_WindU_IsbL-0985_RLatLon0.09_PT082H.grib2 2026-05-08 15:05 794K
20260508T12Z_MSC_RDPS_WindU_IsbL-1000_RLatLon0.09_PT082H.grib2 2026-05-08 15:05 789K
20260508T12Z_MSC_RDPS_WindU_IsbL-1015_RLatLon0.09_PT082H.grib2 2026-05-08 15:05 785K
20260508T12Z_MSC_RDPS_WindV_AGL-10m_RLatLon0.09_PT082H.grib2 2026-05-08 15:05 435K
20260508T12Z_MSC_RDPS_WindV_AGL-120m_RLatLon0.09_PT082H.grib2 2026-05-08 15:05 533K
20260508T12Z_MSC_RDPS_WindV_AGL-40m_RLatLon0.09_PT082H.grib2 2026-05-08 15:05 536K
20260508T12Z_MSC_RDPS_WindV_AGL-80m_RLatLon0.09_PT082H.grib2 2026-05-08 15:05 534K
20260508T12Z_MSC_RDPS_WindV_IsbL-0001_RLatLon0.09_PT082H.grib2 2026-05-08 15:05 295K
20260508T12Z_MSC_RDPS_WindV_IsbL-0005_RLatLon0.09_PT082H.grib2 2026-05-08 15:05 287K
20260508T12Z_MSC_RDPS_WindV_IsbL-0010_RLatLon0.09_PT082H.grib2 2026-05-08 15:05 301K
20260508T12Z_MSC_RDPS_WindV_IsbL-0020_RLatLon0.09_PT082H.grib2 2026-05-08 15:05 359K
20260508T12Z_MSC_RDPS_WindV_IsbL-0030_RLatLon0.09_PT082H.grib2 2026-05-08 15:05 317K
20260508T12Z_MSC_RDPS_WindV_IsbL-0050_RLatLon0.09_PT082H.grib2 2026-05-08 15:05 338K
20260508T12Z_MSC_RDPS_WindV_IsbL-0100_RLatLon0.09_PT082H.grib2 2026-05-08 15:05 420K
20260508T12Z_MSC_RDPS_WindV_IsbL-0150_RLatLon0.09_PT082H.grib2 2026-05-08 15:05 363K
20260508T12Z_MSC_RDPS_WindV_IsbL-0175_RLatLon0.09_PT082H.grib2 2026-05-08 15:05 413K
20260508T12Z_MSC_RDPS_WindV_IsbL-0200_RLatLon0.09_PT082H.grib2 2026-05-08 15:05 428K
20260508T12Z_MSC_RDPS_WindV_IsbL-0225_RLatLon0.09_PT082H.grib2 2026-05-08 15:05 338K
20260508T12Z_MSC_RDPS_WindV_IsbL-0250_RLatLon0.09_PT082H.grib2 2026-05-08 15:05 341K
20260508T12Z_MSC_RDPS_WindV_IsbL-0275_RLatLon0.09_PT082H.grib2 2026-05-08 15:05 357K
20260508T12Z_MSC_RDPS_WindV_IsbL-0300_RLatLon0.09_PT082H.grib2 2026-05-08 15:05 355K
20260508T12Z_MSC_RDPS_WindV_IsbL-0350_RLatLon0.09_PT082H.grib2 2026-05-08 15:05 361K
20260508T12Z_MSC_RDPS_WindV_IsbL-0400_RLatLon0.09_PT082H.grib2 2026-05-08 15:05 362K
20260508T12Z_MSC_RDPS_WindV_IsbL-0450_RLatLon0.09_PT082H.grib2 2026-05-08 15:05 365K
20260508T12Z_MSC_RDPS_WindV_IsbL-0500_RLatLon0.09_PT082H.grib2 2026-05-08 15:05 473K
20260508T12Z_MSC_RDPS_WindV_IsbL-0550_RLatLon0.09_PT082H.grib2 2026-05-08 15:05 475K
20260508T12Z_MSC_RDPS_WindV_IsbL-0600_RLatLon0.09_PT082H.grib2 2026-05-08 15:05 483K
20260508T12Z_MSC_RDPS_WindV_IsbL-0650_RLatLon0.09_PT082H.grib2 2026-05-08 15:05 501K
20260508T12Z_MSC_RDPS_WindV_IsbL-0700_RLatLon0.09_PT082H.grib2 2026-05-08 15:05 510K
20260508T12Z_MSC_RDPS_WindV_IsbL-0750_RLatLon0.09_PT082H.grib2 2026-05-08 15:05 535K
20260508T12Z_MSC_RDPS_WindV_IsbL-0800_RLatLon0.09_PT082H.grib2 2026-05-08 15:05 578K
20260508T12Z_MSC_RDPS_WindV_IsbL-0850_RLatLon0.09_PT082H.grib2 2026-05-08 15:05 620K
20260508T12Z_MSC_RDPS_WindV_IsbL-0875_RLatLon0.09_PT082H.grib2 2026-05-08 15:05 635K
20260508T12Z_MSC_RDPS_WindV_IsbL-0900_RLatLon0.09_PT082H.grib2 2026-05-08 15:05 649K
20260508T12Z_MSC_RDPS_WindV_IsbL-0925_RLatLon0.09_PT082H.grib2 2026-05-08 15:05 659K
20260508T12Z_MSC_RDPS_WindV_IsbL-0950_RLatLon0.09_PT082H.grib2 2026-05-08 15:05 658K
20260508T12Z_MSC_RDPS_WindV_IsbL-0970_RLatLon0.09_PT082H.grib2 2026-05-08 15:05 656K
20260508T12Z_MSC_RDPS_WindV_IsbL-0985_RLatLon0.09_PT082H.grib2 2026-05-08 15:05 793K
20260508T12Z_MSC_RDPS_WindV_IsbL-1000_RLatLon0.09_PT082H.grib2 2026-05-08 15:05 789K
20260508T12Z_MSC_RDPS_WindV_IsbL-1015_RLatLon0.09_PT082H.grib2 2026-05-08 15:05 830K